[[{"header":{"parameterUnit":"m.s-1","parameterCategory":1,"la1":30.2991,"la2":30.254,"lo1":-89.0895,"lo2":-89.0444,"dy":0.0017,"dx":0.0017,"nx":28,"ny":28,"refTime":"2025-02-23T03:00:00:Z","depth":0,"parameterNumber":2,"parameterNumberName":"U-component_of_WINDS"},"data":[0,0,0,0,0,0,0,0,0,0,0,0,0,0,0,0,0,0,0,0,0,0,0,0,0,0,0,0,0,0,0,0,0,0,0,0,0,0,0,0,0,0,0,0,0,0,0,0,0,0,0,0,0,0,0,0,0,0,-1.8071,-1.8071,0,-1.8064,-1.8064,-1.8064,-1.804,-1.804,-1.8039,-1.8039,-1.8031,-1.8031,-1.8031,0,0,0,0,0,0,0,0,0,0,0,0,0,-1.8065,-1.8065,-1.8071,-1.8071,-1.8071,-1.8064,-1.8064,-1.8064,-1.804,-1.804,-1.8039,-1.8038,-1.8031,-1.8031,-1.8031,0,0,0,0,0,0,0,0,0,0,0,0,0,-1.8064,-1.8065,-1.8071,-1.8059,-1.8057,-1.8064,-1.8064,-1.8064,-1.804,-1.804,-1.8039,-1.8038,-1.803,-1.8031,-1.8031,-1.805,0,0,-1.8033,-1.8033,0,0,0,0,0,0,0,0,-1.8064,-1.8064,-1.806,-1.8059,-1.8058,-1.8052,-1.8059,-1.8059,-1.8041,-1.8047,-1.8039,-1.8038,-1.8038,-1.8038,-1.8038,-1.8049,-1.8049,-1.8033,-1.8033,-1.8033,-1.8033,0,0,0,0,0,0,0,-1.8064,-1.8064,-1.8068,-1.806,-1.8059,-1.8053,-1.8052,-1.8059,-1.8047,-1.8046,-1.8044,-1.8044,-1.8038,-1.8038,-1.8038,-1.8049,-1.8033,-1.8033,-1.8033,-1.8033,-1.8077,-1.8078,0,0,0,0,0,0,-1.8066,-1.8064,-1.8069,-1.8068,-1.8059,-1.8054,-1.8053,-1.8055,-1.8047,-1.8045,-1.8045,-1.8043,-1.8038,-1.8038,-1.8038,-1.806,-1.8033,-1.8033,-1.8034,-1.8076,-1.8077,-1.8078,0,0,0,0,0,0,-1.8066,-1.8067,-1.8069,-1.8066,-1.8066,-1.8055,-1.8058,-1.8055,-1.8056,-1.8046,-1.8044,-1.8047,-1.8037,-1.8037,-1.8047,-1.806,-1.8034,-1.8034,-1.8075,-1.8076,-1.8078,-1.8105,0,0,0,0,0,0,-1.8066,-1.8067,-1.8073,-1.8066,-1.8066,-1.8079,-1.8058,-1.8056,-1.8057,-1.8054,-1.8048,-1.8046,-1.8037,-1.8047,-1.8048,-1.806,-1.8034,-1.8074,-1.8076,-1.8077,-1.8103,-1.8107,-1.8111,0,0,0,0,0,-1.8066,-1.8081,-1.8074,-1.8074,-1.8074,-1.8079,-1.8079,-1.8068,-1.8058,-1.8065,-1.8059,-1.8046,-1.8058,-1.8048,-1.8049,-1.8061,-1.8073,-1.8075,-1.8077,-1.8101,-1.8106,-1.8111,0,0,0,0,0,0,-1.8088,-1.8079,-1.8072,-1.8085,-1.8083,-1.8075,-1.8083,-1.8074,-1.8075,-1.8072,-1.8059,-1.8058,-1.807,-1.8067,-1.8056,-1.808,-1.8064,-1.8066,-1.8082,-1.8087,-1.809,-1.8091,-1.8035,0,0,0,0,0,-1.8095,-1.81,-1.8092,-1.8104,-1.8104,-1.8094,-1.8096,-1.8088,-1.8085,-1.8085,-1.8079,-1.8077,-1.8081,-1.8083,-1.8086,-1.8102,-1.8102,-1.8111,-1.8115,-1.8118,-1.8121,-1.8131,-1.8136,-1.8085,-1.8085,-1.8085,0,0,-1.8108,-1.8104,-1.8108,-1.8109,-1.8106,-1.8113,-1.8093,-1.81,-1.8105,-1.8085,-1.8095,-1.8092,-1.8089,-1.8103,-1.8109,-1.81,-1.8135,-1.8121,-1.8124,-1.8124,-1.8134,-1.8139,-1.8143,-1.8086,-1.8086,-1.8086,0,0,-1.8136,-1.8133,-1.8144,-1.8143,-1.814,-1.8134,-1.8137,-1.8131,-1.8128,-1.8138,-1.8124,-1.813,-1.8135,-1.8135,-1.8135,-1.8165,-1.8155,-1.8166,-1.8187,-1.8197,-1.8201,-1.8205,-1.8217,-1.8221,-1.8169,-1.8169,-1.8169,0,-1.8153,-1.8162,-1.8151,-1.8159,-1.816,-1.8144,-1.8156,-1.8155,-1.8153,-1.8155,-1.8145,-1.8154,-1.8151,-1.8166,-1.8173,-1.8174,-1.8177,-1.8167,-1.8202,-1.8205,-1.8208,-1.822,-1.8224,-1.817,-1.817,-1.817,-1.817,0,-1.8184,-1.819,-1.8199,-1.8199,-1.8202,-1.8211,-1.8202,-1.8206,-1.8198,-1.8193,-1.8205,-1.8201,-1.8203,-1.8206,-1.8198,-1.822,-1.8215,-1.8204,-1.8187,-1.8215,-1.8226,-1.823,-1.8173,-1.8172,-1.8172,-1.8171,0,0,-1.8225,-1.822,-1.8224,-1.8224,-1.8221,-1.8226,-1.8236,-1.8239,-1.8243,-1.8243,-1.8252,-1.8258,-1.8249,-1.8249,-1.8241,-1.825,-1.8277,-1.8238,-1.8238,-1.8246,-1.8303,-1.8312,-1.8317,-1.8269,-1.827,-1.8271,-1.8304,0,-1.8252,-1.8269,-1.826,-1.8278,-1.8285,-1.8271,-1.8279,-1.8279,-1.8275,-1.828,-1.8276,-1.8281,-1.8267,-1.8268,-1.8276,-1.8272,-1.8288,-1.8269,-1.8278,-1.8279,-1.828,-1.8323,-1.8332,-1.8363,-1.8308,-1.8308,-1.8309,0,-1.8286,-1.8289,-1.8308,-1.8306,-1.8308,-1.8316,-1.832,-1.8325,-1.8325,-1.8321,-1.8323,-1.8314,-1.8324,-1.8308,-1.8322,-1.831,-1.8313,-1.8312,-1.8313,-1.8314,-1.8296,-1.8326,-1.8372,-1.8377,-1.8315,-1.8314,-1.8314,0,-1.8316,-1.8324,-1.8337,-1.8338,-1.8335,-1.8342,-1.8341,-1.834,-1.8343,-1.8346,-1.8349,-1.8352,-1.8355,-1.8358,-1.8351,-1.8339,-1.8367,-1.835,-1.8366,-1.8366,-1.8372,-1.8372,-1.8421,-1.8373,-1.8373,-1.8373,-1.8373,0,-1.8348,-1.8361,-1.8351,-1.8359,-1.8373,-1.8363,-1.8378,-1.8375,-1.8375,-1.8383,-1.8371,-1.8379,-1.8367,-1.8374,-1.8368,-1.8383,-1.8383,-1.8382,-1.838,-1.8383,-1.8384,-1.8386,-1.8384,-1.8374,-1.8374,-1.8374,-1.8373,0,-1.8383,-1.8377,-1.8391,-1.8388,-1.8388,-1.8399,-1.8396,-1.8404,-1.84,-1.841,-1.8412,-1.8406,-1.8414,-1.8406,-1.8413,-1.841,-1.8429,-1.8424,-1.8429,-1.8428,-1.8445,-1.8444,-1.8498,-1.8505,-1.8451,-1.8452,-1.8452,0,-1.8405,-1.8414,-1.8413,-1.8418,-1.8418,-1.8426,-1.843,-1.8421,-1.8425,-1.8427,-1.8435,-1.8442,-1.8447,-1.8461,-1.8457,-1.8463,-1.8458,-1.8477,-1.8459,-1.8463,-1.846,-1.846,-1.8462,-1.8481,-1.8481,-1.8482,-1.8482,0,-1.8443,-1.8441,-1.8447,-1.8452,-1.8458,-1.8461,-1.8464,-1.8469,-1.846,-1.8466,-1.8474,-1.8479,-1.8487,-1.8495,-1.85,-1.8499,-1.849,-1.8488,-1.8492,-1.8496,-1.8499,-1.8499,-1.844,-1.8487,-1.8486,-1.8486,-1.8486,-1.8485,-1.8473,-1.8482,-1.8483,-1.8491,-1.8493,-1.8496,-1.8504,-1.8502,-1.8509,-1.8515,-1.851,-1.852,-1.8522,-1.8528,-1.8529,-1.8538,-1.853,-1.8536,-1.8537,-1.8539,-1.8542,-1.8498,-1.8538,-1.8538,-1.8538,-1.8538,-1.8538,0,-1.8513,-1.8513,-1.8521,-1.8526,-1.8533,-1.8524,-1.8527,-1.8533,-1.8543,-1.8545,-1.8551,-1.8562,-1.857,-1.8567,-1.8575,-1.8582,-1.8578,-1.8585,-1.8584,-1.8585,-1.8548,-1.8544,-1.8588,-1.8588,-1.8588,-1.8588,-1.8588,-1.8588,-1.8534,-1.8549,-1.8547,-1.8563,-1.8563,-1.8574,-1.8577,-1.8581,-1.8583,-1.8596,-1.8603,-1.8601,-1.8602,-1.861,-1.8618,-1.8617,-1.862,-1.8629,-1.8626,-1.8592,-1.8587,-1.8582,-1.8579,-1.8629,-1.8629,-1.8663,-1.8663,-1.8663]},{"header":{"parameterUnit":"m.s-1","parameterCategory":1,"la1":30.2991,"la2":30.254,"lo1":-89.0895,"lo2":-89.0444,"dy":0.0017,"dx":0.0017,"nx":28,"ny":28,"refTime":"2025-02-23T03:00:00:Z","depth":0,"parameterNumber":3,"parameterNumberName":"V-component_of_WINDS"},"data":[0,0,0,0,0,0,0,0,0,0,0,0,0,0,0,0,0,0,0,0,0,0,0,0,0,0,0,0,0,0,0,0,0,0,0,0,0,0,0,0,0,0,0,0,0,0,0,0,0,0,0,0,0,0,0,0,0,0,-2.6296,-2.6296,0,-2.6309,-2.6309,-2.631,-2.6288,-2.6287,-2.6287,-2.6286,-2.6299,-2.63,-2.6301,0,0,0,0,0,0,0,0,0,0,0,0,0,-2.6254,-2.6255,-2.6296,-2.6296,-2.6296,-2.6309,-2.6309,-2.631,-2.6288,-2.6287,-2.6287,-2.6286,-2.6299,-2.63,-2.6302,0,0,0,0,0,0,0,0,0,0,0,0,0,-2.627,-2.6255,-2.6296,-2.6287,-2.6286,-2.6309,-2.6309,-2.631,-2.6288,-2.6287,-2.6286,-2.6285,-2.6299,-2.63,-2.6302,-2.6333,0,0,-2.6306,-2.6307,0,0,0,0,0,0,0,0,-2.6269,-2.6272,-2.6288,-2.6288,-2.6287,-2.6296,-2.63,-2.6318,-2.6289,-2.6288,-2.6286,-2.6285,-2.6299,-2.6301,-2.6305,-2.6334,-2.6335,-2.6307,-2.6308,-2.6308,-2.6309,0,0,0,0,0,0,0,-2.6268,-2.6271,-2.6301,-2.6288,-2.6288,-2.6283,-2.6284,-2.6303,-2.6299,-2.6288,-2.6286,-2.6288,-2.6299,-2.6304,-2.6306,-2.6335,-2.6307,-2.6308,-2.6309,-2.631,-2.6396,-2.6397,0,0,0,0,0,0,-2.6268,-2.627,-2.6301,-2.6302,-2.6275,-2.6285,-2.6286,-2.6294,-2.6299,-2.6299,-2.6289,-2.6287,-2.6302,-2.6304,-2.6306,-2.6347,-2.6308,-2.631,-2.6311,-2.6394,-2.6396,-2.6397,0,0,0,0,0,0,-2.6267,-2.6271,-2.63,-2.6286,-2.6289,-2.6287,-2.6296,-2.6295,-2.63,-2.63,-2.63,-2.6295,-2.6301,-2.6304,-2.6328,-2.6347,-2.631,-2.6312,-2.6393,-2.6395,-2.6397,-2.6428,0,0,0,0,0,0,-2.6266,-2.6271,-2.6282,-2.6286,-2.629,-2.6321,-2.6297,-2.6296,-2.6303,-2.6301,-2.6306,-2.6305,-2.63,-2.6326,-2.633,-2.6349,-2.6313,-2.6391,-2.6394,-2.6396,-2.6425,-2.6431,-2.6435,0,0,0,0,0,-2.6265,-2.6289,-2.6283,-2.6286,-2.6304,-2.6322,-2.6324,-2.6318,-2.6305,-2.6317,-2.6318,-2.6305,-2.6344,-2.6328,-2.6332,-2.6353,-2.639,-2.6393,-2.6396,-2.6423,-2.643,-2.6435,0,0,0,0,0,0,-2.6285,-2.6289,-2.6282,-2.6308,-2.6315,-2.6319,-2.6333,-2.6325,-2.6336,-2.6333,-2.6325,-2.6326,-2.6353,-2.6355,-2.6337,-2.6386,-2.6365,-2.6369,-2.6384,-2.6391,-2.6396,-2.6396,-2.6314,0,0,0,0,0,-2.6293,-2.6308,-2.631,-2.6333,-2.6337,-2.6335,-2.6342,-2.6338,-2.6345,-2.6347,-2.6349,-2.6357,-2.6371,-2.6381,-2.6393,-2.6425,-2.6428,-2.6441,-2.6446,-2.6451,-2.6455,-2.6476,-2.6484,-2.6407,-2.6407,-2.6407,0,0,-2.6309,-2.6313,-2.6322,-2.6337,-2.6342,-2.6359,-2.6337,-2.6354,-2.6368,-2.635,-2.6374,-2.6376,-2.6384,-2.6414,-2.6426,-2.6416,-2.6477,-2.6455,-2.6458,-2.646,-2.648,-2.6488,-2.6494,-2.641,-2.6409,-2.6409,0,0,-2.6347,-2.635,-2.6372,-2.6378,-2.6387,-2.6386,-2.6391,-2.6397,-2.6398,-2.6422,-2.6411,-2.6426,-2.645,-2.6458,-2.6465,-2.6511,-2.6502,-2.6515,-2.6543,-2.6564,-2.657,-2.6576,-2.6596,-2.6603,-2.6519,-2.6519,-2.6519,0,-2.6365,-2.639,-2.6383,-2.6403,-2.6412,-2.6398,-2.6422,-2.6428,-2.644,-2.6447,-2.6435,-2.6468,-2.6472,-2.6506,-2.6518,-2.6522,-2.6531,-2.6515,-2.657,-2.6575,-2.658,-2.6599,-2.6607,-2.6521,-2.6521,-2.6521,-2.652,0,-2.6414,-2.6431,-2.6448,-2.6463,-2.6473,-2.6494,-2.6493,-2.6504,-2.65,-2.6501,-2.6528,-2.6533,-2.6549,-2.6556,-2.655,-2.659,-2.6584,-2.6571,-2.655,-2.6589,-2.6608,-2.6615,-2.6524,-2.6523,-2.6523,-2.6522,0,0,-2.6463,-2.6477,-2.6484,-2.6492,-2.6503,-2.6517,-2.6539,-2.6556,-2.6568,-2.6577,-2.6598,-2.6621,-2.6611,-2.6619,-2.6614,-2.6632,-2.6674,-2.6618,-2.6618,-2.6631,-2.6723,-2.6735,-2.6743,-2.6668,-2.6669,-2.667,-2.6724,0,-2.6503,-2.6543,-2.654,-2.6578,-2.6596,-2.6586,-2.6606,-2.6616,-2.6618,-2.6635,-2.6637,-2.6656,-2.6638,-2.6644,-2.6662,-2.6665,-2.6693,-2.6661,-2.6689,-2.669,-2.669,-2.6752,-2.6763,-2.6814,-2.673,-2.6732,-2.6732,0,-2.6555,-2.657,-2.661,-2.6623,-2.663,-2.6648,-2.6667,-2.6682,-2.6694,-2.6695,-2.6707,-2.6701,-2.6726,-2.6703,-2.674,-2.6718,-2.673,-2.6734,-2.6736,-2.674,-2.6715,-2.6761,-2.6829,-2.6838,-2.6743,-2.6742,-2.6741,0,-2.6591,-2.6621,-2.665,-2.6657,-2.6672,-2.6686,-2.6692,-2.6704,-2.6716,-2.6731,-2.674,-2.6757,-2.6768,-2.6783,-2.6783,-2.6766,-2.6821,-2.6798,-2.6825,-2.6825,-2.6838,-2.6838,-2.6912,-2.6841,-2.6841,-2.6841,-2.6841,0,-2.6638,-2.6664,-2.6667,-2.6685,-2.6715,-2.6713,-2.6743,-2.6748,-2.676,-2.678,-2.6771,-2.6791,-2.6788,-2.6809,-2.6809,-2.6841,-2.6845,-2.6848,-2.6848,-2.6851,-2.6851,-2.6859,-2.6857,-2.6843,-2.6842,-2.6842,-2.6842,0,-2.6683,-2.6686,-2.6718,-2.6731,-2.6735,-2.6757,-2.6769,-2.6787,-2.679,-2.6817,-2.6823,-2.6828,-2.6852,-2.6854,-2.688,-2.6881,-2.6922,-2.6916,-2.6918,-2.6918,-2.6947,-2.6945,-2.7031,-2.7045,-2.6962,-2.6963,-2.6963,0,-2.6714,-2.6734,-2.6751,-2.6765,-2.6773,-2.6795,-2.6808,-2.6808,-2.6822,-2.6841,-2.6858,-2.6882,-2.6901,-2.694,-2.6947,-2.6969,-2.6966,-2.6995,-2.6969,-2.6972,-2.6971,-2.6971,-2.6975,-2.7,-2.7001,-2.7002,-2.7002,0,-2.6769,-2.6771,-2.679,-2.6813,-2.683,-2.6847,-2.6862,-2.6874,-2.6876,-2.6893,-2.6919,-2.6934,-2.6964,-2.6989,-2.7011,-2.7019,-2.7013,-2.7011,-2.7019,-2.7022,-2.7024,-2.7027,-2.6935,-2.7009,-2.7008,-2.7008,-2.7007,-2.7007,-2.681,-2.6829,-2.6846,-2.687,-2.6882,-2.6899,-2.6918,-2.6926,-2.6947,-2.6973,-2.6971,-2.7001,-2.7017,-2.7047,-2.7057,-2.7081,-2.7072,-2.7082,-2.7086,-2.7089,-2.7094,-2.7019,-2.7085,-2.7085,-2.7084,-2.7084,-2.7084,0,-2.6867,-2.6879,-2.6901,-2.6925,-2.6945,-2.6938,-2.6957,-2.6974,-2.7001,-2.7017,-2.7037,-2.7069,-2.7094,-2.7105,-2.713,-2.7148,-2.7146,-2.7155,-2.7155,-2.7158,-2.7099,-2.7091,-2.7157,-2.7157,-2.7157,-2.7157,-2.7157,-2.7157,-2.69,-2.6934,-2.6939,-2.6981,-2.6992,-2.7022,-2.7034,-2.705,-2.7064,-2.7101,-2.7123,-2.713,-2.7145,-2.7172,-2.7196,-2.7199,-2.721,-2.7222,-2.7223,-2.7168,-2.7161,-2.7154,-2.7147,-2.7223,-2.7223,-2.728,-2.7281,-2.7281]}]]